Theta_e
335 330 328 328 326 324 320 318 318 315 311 309 309 310 313 324 332 332 333 333 332 328 320 322 327 328 328 326 326 327 327 326 323 320 321 320 320 320 318 317 319 322 323 324 325 326 325 324 325 324 321 319 318 321 326 329 329 329 328 328 330 332 333 331 331 330 330 329 329 329 330 330 328 325 324 325 325 323 323 323 323 324 326 327 327
334 328 327 328 326 322 319 319 319 315 311 309 310 312 319 328 331 331 332 332 331 326 321 325 327 326 326 327 329 328 327 325 321 319 318 319 319 318 318 317 317 318 317 317 318 319 319 318 318 318 317 316 318 321 324 326 327 327 327 327 330 332 331 329 328 326 325 324 323 323 326 328 327 325 324 326 327 326 326 325 324 324 325 326 326
332 327 327 330 326 320 320 320 319 316 311 309 310 317 326 329 331 332 332 331 330 327 324 326 328 327 327 329 329 328 328 324 321 320 319 322 318 316 319 317 316 316 315 313 312 313 312 312 312 312 312 314 317 321 324 325 326 326 326 327 329 330 328 326 323 321 322 323 323 324 326 328 328 328 327 327 328 328 327 328 327 326 325 326 326
331 328 328 330 325 320 320 320 319 316 311 309 309 316 327 330 331 332 332 331 330 329 325 323 324 327 328 329 328 327 329 323 322 324 325 325 319 314 315 315 317 316 314 312 311 311 310 310 311 310 310 312 314 319 322 323 324 325 327 328 329 328 326 323 321 321 325 326 327 327 327 327 328 329 328 326 326 326 327 329 328 327 326 326 326
331 328 328 330 324 321 321 321 320 317 312 310 308 313 323 328 329 330 330 331 331 330 324 322 324 327 327 328 329 328 328 324 323 328 329 326 322 318 315 316 318 315 314 314 311 311 310 310 310 310 310 310 311 313 316 319 323 325 327 328 327 326 325 326 326 327 329 329 328 328 328 328 328 329 328 325 325 326 328 328 327 326 326 326 326
331 327 328 329 324 321 321 321 320 317 313 310 309 313 323 328 329 329 330 331 332 329 324 324 327 328 328 328 329 328 328 326 325 327 326 323 320 318 316 318 317 313 313 313 312 311 310 310 310 310 311 310 310 310 311 314 318 323 326 327 326 324 325 327 329 329 330 330 329 329 329 329 330 329 327 326 325 327 328 326 326 325 326 326 326
330 327 328 330 325 322 322 321 321 317 314 310 309 313 323 328 329 329 330 331 331 330 326 326 325 322 324 326 327 328 328 327 325 323 320 316 314 313 314 318 318 315 314 313 312 312 311 310 311 311 312 312 312 312 311 311 313 319 324 325 324 323 325 327 329 330 331 330 329 330 330 329 328 328 327 326 326 327 327 325 325 325 326 326 325
331 330 331 330 325 322 322 322 321 318 314 311 310 310 317 326 328 329 330 331 331 330 326 327 325 321 323 325 326 327 326 325 321 317 314 311 313 316 317 318 317 316 316 316 315 315 315 311 311 312 313 314 314 314 314 314 314 316 319 321 322 325 327 328 329 330 330 330 329 329 329 326 326 327 325 325 326 326 325 324 324 325 325 324 323
334 333 332 331 325 323 322 322 321 320 316 312 311 309 315 325 327 329 330 330 331 329 325 325 322 321 324 323 322 324 325 324 320 318 317 314 317 321 323 322 319 318 317 320 321 321 319 313 312 314 314 315 315 316 316 317 317 317 318 320 323 326 328 328 329 330 330 329 329 328 327 324 323 325 325 325 325 324 324 323 323 323 322 320 321
337 335 333 331 325 323 322 321 322 320 317 312 312 310 315 324 326 328 329 329 329 328 326 323 318 317 320 318 321 326 326 326 323 322 322 318 318 322 325 325 323 322 321 323 323 321 318 314 314 315 315 316 316 317 318 319 319 320 320 321 323 325 326 326 327 328 327 327 326 326 326 324 323 325 326 325 323 322 322 320 321 320 319 318 320
337 336 335 331 325 324 321 320 321 321 317 313 312 311 316 322 325 328 328 328 328 327 324 320 316 314 316 317 321 325 325 326 325 322 320 315 315 319 321 322 321 321 321 321 321 319 316 314 314 316 317 317 318 318 319 320 321 321 321 322 323 324 326 326 326 326 326 326 326 326 326 325 325 325 325 325 322 320 319 318 320 319 319 318 319
337 337 335 329 326 324 321 320 321 321 318 313 313 313 316 320 323 326 326 326 324 320 317 315 314 314 317 318 317 321 323 325 322 318 315 313 316 319 318 318 319 319 320 319 319 318 316 315 315 316 317 318 318 319 320 321 322 322 322 323 324 326 327 327 327 327 327 327 326 326 326 325 325 325 324 323 320 317 317 318 319 319 319 318 316
336 338 335 329 327 325 321 320 321 322 320 315 313 313 314 315 317 319 320 321 318 315 314 312 312 313 316 317 316 317 320 320 317 314 312 314 319 321 319 318 319 320 319 318 317 316 315 315 315 315 317 317 318 319 320 322 322 323 323 323 325 327 328 327 328 328 327 327 326 326 326 325 323 321 318 316 314 311 312 314 317 317 317 316 314
335 338 335 329 327 325 322 320 321 322 321 318 315 314 314 314 313 314 314 315 314 313 312 310 310 312 313 315 316 316 316 316 314 314 313 315 319 319 318 319 320 321 320 318 316 314 314 313 314 315 316 317 317 318 320 321 322 322 322 323 325 326 327 327 327 327 327 327 327 326 326 324 318 311 309 308 308 307 307 309 312 312 312 312 312
335 338 335 330 328 326 323 320 322 322 322 320 317 315 313 314 314 314 313 313 312 310 309 308 308 309 310 311 312 312 312 313 312 313 314 316 317 317 319 321 321 322 322 321 318 316 314 312 313 314 315 316 317 318 319 321 321 321 322 323 323 324 326 327 327 327 327 327 327 326 325 321 313 306 306 306 306 306 306 307 308 309 311 311 313
335 337 334 331 329 327 324 321 322 322 323 322 319 317 315 314 314 315 315 313 312 310 308 307 307 307 308 309 308 308 309 310 310 312 314 316 317 318 320 321 322 322 322 322 321 320 318 315 313 313 314 315 316 317 318 319 320 320 321 322 322 322 323 324 324 325 325 325 325 325 323 317 309 306 307 307 307 307 307 309 310 311 311 312 314
335 337 334 331 330 328 325 322 322 322 323 323 321 319 317 316 315 315 316 315 314 311 309 307 307 307 307 307 307 307 307 309 311 314 316 317 317 318 320 320 321 321 322 322 322 322 321 319 316 314 313 314 315 316 318 319 319 319 320 320 320 319 319 320 321 322 323 323 324 324 320 312 306 306 307 307 307 308 308 310 312 311 310 310 312
334 336 334 332 331 329 326 323 322 322 323 323 323 321 320 318 317 316 316 316 316 314 312 309 308 307 307 307 307 307 307 309 312 315 317 317 318 318 319 319 320 320 321 322 322 322 322 321 320 317 315 314 314 315 317 318 318 319 319 319 319 319 318 318 318 319 320 321 321 321 316 308 306 307 308 308 308 308 309 311 311 311 311 310 311
333 335 334 333 332 331 329 326 323 323 323 323 323 323 322 320 319 319 317 317 317 316 315 313 310 308 308 307 307 307 308 310 312 315 317 318 318 319 318 319 319 320 320 321 322 322 322 322 321 320 318 317 315 315 315 316 317 318 319 319 319 319 318 319 318 317 318 319 318 317 313 308 309 311 310 310 310 311 311 310 310 310 310 308 310
333 334 334 333 333 333 332 330 326 324 323 323 323 324 324 323 321 320 319 318 317 317 317 315 314 312 311 309 308 308 309 311 312 315 317 317 318 319 319 319 319 319 320 320 321 321 322 322 322 322 321 320 318 317 315 315 316 317 318 319 319 319 319 319 318 317 314 315 315 313 311 310 314 315 312 312 314 314 312 309 309 309 309 310 313
333 333 333 333 334 334 333 332 329 328 327 326 326 324 323 324 323 322 321 320 320 318 317 317 316 316 315 314 312 312 311 312 313 315 317 318 318 319 319 319 320 320 320 320 321 321 321 322 322 322 322 322 320 319 318 317 316 316 317 318 318 320 320 319 319 318 314 313 314 312 312 313 317 317 315 314 314 314 312 309 309 308 311 314 314
332 333 332 332 334 334 333 334 332 331 331 331 330 328 324 324 324 324 323 322 322 320 319 318 317 317 318 317 317 316 315 315 315 316 317 318 319 319 319 319 320 320 320 320 321 321 321 322 322 322 323 322 321 320 320 319 318 317 317 319 320 320 320 319 319 319 317 317 317 317 316 317 317 317 317 316 312 313 314 310 308 308 312 314 312
331 332 332 332 334 334 333 334 333 332 333 333 333 332 328 325 324 324 324 324 323 323 322 321 319 319 318 318 318 318 318 318 317 316 317 319 319 319 320 320 320 319 319 320 320 321 322 322 322 323 323 322 322 321 320 320 319 319 319 320 321 320 319 319 320 318 317 318 318 318 318 317 318 318 317 316 314 315 315 311 311 312 311 312 312
331 330 331 331 333 333 332 333 333 332 333 334 333 333 332 328 325 324 324 325 324 324 324 323 322 321 320 320 320 319 318 319 319 318 318 319 319 320 320 320 320 320 319 320 320 321 321 322 322 322 323 323 323 322 322 321 321 321 321 321 321 320 320 320 320 319 318 318 318 319 318 318 318 318 317 316 315 315 315 313 312 312 309 309 312
332 330 331 331 331 331 331 332 332 332 332 334 333 332 332 330 326 324 324 325 325 324 324 324 324 323 322 322 322 319 318 319 319 320 320 320 320 320 320 321 321 320 320 320 320 320 321 321 321 321 322 322 322 322 322 322 322 322 322 322 321 320 321 320 320 320 320 319 318 318 319 319 318 318 317 317 316 315 315 313 312 312 309 309 312
334 332 332 331 330 330 331 330 330 330 330 332 333 331 331 331 329 325 324 324 324 324 325 325 325 325 324 324 323 320 320 320 319 319 320 320 320 320 320 320 320 319 319 320 320 321 320 320 320 320 321 321 321 321 322 322 323 322 322 322 320 320 320 320 320 320 320 320 319 318 318 318 318 318 317 317 316 315 315 314 313 313 311 311 312
334 334 332 331 331 331 331 330 329 329 328 330 332 331 331 332 331 329 326 325 324 324 324 324 325 325 325 325 325 323 323 323 322 321 321 321 320 320 319 320 320 320 319 320 320 321 320 320 320 320 320 320 320 320 321 321 322 322 322 322 321 321 320 320 320 321 320 320 319 319 318 318 318 317 317 317 316 315 314 314 313 314 313 311 311
332 334 332 331 332 332 331 330 329 328 327 328 330 330 330 331 331 330 328 327 325 323 323 324 324 325 325 326 325 325 325 325 325 324 324 324 323 321 320 320 320 320 320 320 320 320 320 320 320 320 319 319 319 320 320 320 321 321 321 321 321 321 321 320 320 321 321 320 320 319 319 318 317 317 317 316 316 315 314 314 313 314 313 312 311
333 333 333 332 332 331 331 330 329 328 327 327 327 328 327 328 329 328 328 328 325 324 324 324 324 324 325 326 326 326 326 326 326 326 325 325 325 325 324 323 321 320 320 320 320 320 320 320 320 320 320 319 320 320 320 320 320 320 321 321 321 321 321 321 321 321 321 320 320 319 319 318 317 317 316 316 316 316 315 314 314 314 313 313 313
334 334 333 331 330 329 329 329 329 328 327 327 326 327 327 327 327 326 327 327 325 325 324 324 325 324 324 325 326 326 326 326 326 326 326 326 326 326 325 325 325 324 322 321 321 320 320 320 320 320 320 320 320 320 320 320 321 322 322 322 322 321 320 321 320 320 321 321 320 320 319 319 318 318 317 316 316 316 315 315 314 314 314 313 313
335 335 334 331 329 327 326 326 327 328 327 327 326 327 327 328 327 327 326 326 326 325 324 324 324 325 325 325 325 326 326 327 327 327 327 326 327 326 326 326 326 326 325 324 323 322 321 321 321 321 321 320 320 321 321 321 323 323 323 323 322 321 321 320 320 320 320 320 320 320 319 319 319 318 318 317 316 316 316 315 315 314 314 313 313
334 334 333 331 329 325 323 323 325 326 326 326 326 326 327 327 328 327 326 326 326 325 324 324 324 324 325 325 325 326 326 327 327 327 327 327 327 327 327 326 327 326 326 326 326 325 324 323 323 322 321 321 321 321 321 322 323 323 323 322 322 321 321 320 320 320 320 320 320 320 320 319 319 318 318 318 317 317 316 316 315 315 314 313 313
327 330 331 329 327 323 320 321 322 323 323 323 324 324 325 326 327 327 326 326 326 325 324 324 324 325 325 326 325 326 326 327 327 327 327 328 327 328 328 327 327 327 327 327 327 327 326 326 325 324 324 323 323 323 323 323 323 323 323 322 322 321 321 320 320 319 320 320 320 320 320 319 319 319 319 319 319 318 317 316 316 315 314 314 314
320 325 326 324 322 321 319 319 320 319 318 320 321 321 322 324 324 325 326 325 324 324 324 324 324 324 324 325 325 325 327 327 327 327 328 328 328 328 328 328 328 327 327 327 327 327 327 327 326 326 325 325 324 324 324 324 323 323 323 322 322 321 321 321 321 320 319 319 320 320 320 319 318 319 319 319 319 318 318 317 317 316 315 314 314
319 321 320 319 318 318 318 317 318 318 316 317 318 318 320 322 323 323 325 324 322 323 323 322 322 323 323 323 323 323 325 327 328 328 328 328 328 328 328 328 328 328 328 327 327 327 326 326 326 326 325 325 324 324 324 324 323 323 323 323 321 321 320 321 322 322 321 320 319 319 319 319 318 318 318 318 318 318 318 318 317 317 316 315 314
317 317 316 316 316 316 315 315 316 317 317 316 316 317 318 319 320 321 322 324 323 322 321 320 320 321 321 321 321 321 321 324 327 328 329 328 328 328 328 328 328 328 328 328 328 328 327 327 326 326 325 325 324 325 325 323 323 323 323 322 322 321 320 321 322 323 323 321 320 319 319 319 319 318 318 318 318 317 318 318 318 317 316 316 315
314 315 315 314 315 315 314 314 314 316 316 316 317 317 317 317 318 317 318 321 321 321 320 320 319 320 320 320 319 319 319 321 324 327 329 329 329 328 329 328 327 327 327 328 328 327 327 327 326 326 325 325 325 324 324 323 323 323 323 323 323 322 322 322 322 323 323 323 322 321 320 319 319 319 318 318 318 317 317 318 318 317 316 316 316
314 314 314 314 314 315 314 314 314 315 316 316 316 317 317 318 317 316 316 317 318 317 318 318 318 317 318 318 318 318 317 318 320 323 327 329 330 330 330 329 328 327 327 327 327 326 326 326 326 325 325 325 324 323 323 322 322 323 323 323 324 324 324 323 323 323 323 323 323 323 322 321 319 319 319 319 318 318 318 317 318 318 317 317 317
314 314 314 314 314 315 315 315 315 315 315 316 316 316 317 318 318 317 316 316 316 315 316 316 316 315 316 317 317 317 316 316 317 319 323 326 328 329 329 328 327 327 327 327 327 326 326 326 325 324 324 324 324 323 323 323 323 323 323 323 324 324 325 325 324 324 323 323 323 323 323 322 321 320 320 319 319 319 318 317 317 317 317 317 317
314 314 314 314 314 315 315 314 315 314 314 315 315 316 316 317 317 317 316 315 315 315 315 315 315 315 315 315 317 317 318 318 317 318 320 321 322 323 324 325 325 326 325 324 325 326 325 325 325 323 323 323 324 324 324 324 324 324 324 323 323 323 324 324 325 325 324 323 323 322 321 322 322 321 320 320 319 319 318 317 317 317 317 318 317
314 314 314 314 314 314 314 314 314 314 314 314 315 315 315 316 316 316 316 315 315 315 314 314 315 315 315 315 316 318 321 321 318 317 316 317 317 318 320 324 325 325 324 322 323 325 326 326 326 325 324 323 324 325 325 326 326 326 325 324 323 323 323 324 325 325 324 324 323 321 320 321 321 321 321 320 319 319 318 317 316 316 317 317 318
315 314 314 315 315 314 314 315 315 314 315 314 315 315 315 315 316 316 316 316 316 316 315 315 315 316 316 316 316 317 320 320 320 319 316 316 317 319 322 325 326 326 325 323 323 324 325 325 326 326 326 325 325 326 326 326 327 326 326 325 324 323 322 322 322 323 323 323 322 321 321 321 320 320 320 320 319 319 318 317 316 316 316 317 317
315 315 315 315 315 314 314 314 314 315 315 315 315 315 315 315 316 316 317 318 318 317 316 316 317 318 318 318 317 317 318 319 321 320 316 316 318 321 324 325 326 327 326 325 324 324 324 325 326 327 327 327 327 327 326 326 327 326 324 323 324 322 321 320 319 320 321 322 322 322 322 321 320 320 320 319 319 319 318 317 316 315 315 317 317
315 315 315 315 314 314 314 314 314 314 314 315 315 314 315 316 317 318 319 319 320 318 317 316 316 318 318 318 318 318 317 317 318 318 316 319 323 325 327 327 325 324 327 327 325 324 325 326 326 327 327 328 328 328 326 325 325 325 323 322 322 321 320 320 319 319 320 322 322 322 321 320 320 319 319 319 318 318 318 317 317 316 315 316 317
314 314 315 315 315 314 314 314 314 314 314 314 314 314 315 316 317 319 320 320 319 318 317 315 315 316 316 317 318 317 316 315 316 319 320 323 327 328 330 330 324 322 328 329 324 324 327 328 328 328 328 328 327 327 326 324 323 324 323 322 322 321 321 321 320 319 319 320 321 321 320 320 320 319 318 318 318 317 317 318 318 317 316 316 316
314 314 314 314 314 314 314 314 314 314 314 314 314 314 315 315 316 316 318 318 317 316 316 316 316 316 316 316 317 316 315 315 318 323 325 326 328 329 329 326 320 321 328 328 324 323 326 328 328 328 328 327 326 326 326 324 322 322 323 325 324 323 323 321 320 319 318 318 319 319 319 319 319 319 318 318 317 317 316 317 317 317 317 317 316
314 314 314 314 314 314 314 314 314 314 314 314 314 314 314 314 315 316 316 315 315 315 315 315 316 316 316 316 316 315 315 315 317 321 324 326 326 324 322 319 317 321 324 324 323 324 324 325 327 327 325 325 326 327 325 324 322 320 323 326 326 325 324 322 320 319 318 318 318 319 319 319 320 319 318 316 317 317 315 314 315 316 316 316 316
315 314 314 314 315 315 314 314 314 314 314 314 314 314 314 314 315 315 315 314 314 314 314 314 315 315 315 315 315 315 315 315 316 318 319 321 321 318 318 321 323 324 324 325 327 327 325 323 324 325 323 324 325 325 324 324 323 321 321 323 324 325 323 322 321 319 317 317 319 320 320 319 319 317 315 315 316 316 314 314 314 314 314 315 315
314 314 314 314 314 314 315 315 314 314 313 313 313 313 313 313 314 314 314 314 314 314 314 314 315 314 314 314 314 315 315 315 316 316 316 317 317 318 321 325 326 325 324 325 325 326 325 323 324 324 323 323 323 323 325 326 325 323 322 322 323 324 323 322 322 320 319 317 318 320 319 318 318 314 313 314 314 314 313 313 313 313 313 313 314
314 314 314 314 314 314 314 314 313 313 313 312 312 312 312 312 313 313 313 313 313 313 314 314 314 314 314 315 315 315 315 315 315 316 316 317 317 318 321 323 323 322 322 322 322 323 323 324 324 323 322 321 321 324 326 326 325 323 322 322 321 321 322 321 320 319 321 320 319 319 318 317 316 314 312 313 313 312 312 312 312 312 312 312 312
313 313 313 313 313 313 313 313 313 313 312 312 312 311 312 312 312 313 313 314 314 314 314 314 314 315 315 315 315 315 315 315 315 315 315 315 316 316 318 319 320 321 320 321 321 322 323 323 323 321 319 320 322 323 323 323 324 322 322 322 321 320 320 320 319 320 321 320 318 318 316 315 314 314 313 313 312 312 311 311 311 311 311 311 310
Wind_Speed
9 9 8 7 8 11 12 13 14 14 14 13 12 12 14 17 18 17 16 14 14 15 15 15 15 15 15 16 17 15 14 12 11 11 11 12 14 15 17 17 18 19 19 19 17 16 14 13 12 12 12 13 13 14 15 15 15 15 16 16 17 18 18 18 17 16 16 15 15 14 15 15 15 14 14 15 16 15 15 16 16 16 17 16 15
11 10 9 9 9 11 12 13 14 15 15 14 13 15 18 19 19 17 15 14 13 14 14 15 15 15 16 18 19 16 15 14 14 14 14 16 18 19 19 19 19 20 20 20 19 18 17 15 14 14 14 15 15 15 14 14 14 14 15 15 16 16 17 17 16 15 14 14 14 15 17 17 17 16 16 17 18 18 18 18 17 18 17 16 15
13 11 10 10 10 11 11 12 14 15 15 14 15 18 20 20 18 16 14 13 12 14 14 15 15 16 19 20 18 16 15 14 16 17 17 17 19 19 18 19 20 20 20 20 19 19 18 17 16 16 15 15 16 15 14 13 13 13 14 14 14 14 15 15 13 13 14 15 16 17 18 18 18 17 17 18 19 19 19 19 19 18 17 15 15
12 11 10 10 10 10 11 12 14 15 14 13 14 16 18 19 17 14 13 12 12 13 14 15 15 16 18 19 17 15 13 14 16 18 18 17 18 19 18 18 19 19 19 19 19 18 18 18 17 17 16 16 15 14 13 12 12 12 13 13 14 14 15 15 13 13 15 17 17 17 18 18 18 18 18 18 17 17 17 18 18 18 17 15 15
12 12 10 11 10 10 11 12 14 15 14 13 14 13 16 18 16 13 12 12 11 13 15 15 16 16 17 18 17 15 13 14 17 18 17 16 17 17 18 17 17 18 18 18 18 18 18 18 17 17 16 16 15 14 13 12 12 13 14 14 15 16 16 16 14 14 15 16 16 16 16 17 18 18 18 17 16 15 16 17 16 15 15 15 15
12 12 11 11 10 10 11 12 14 14 14 13 14 15 17 18 15 13 12 11 11 12 15 15 16 16 17 17 16 15 14 14 16 16 15 15 16 16 17 16 17 17 17 17 17 17 17 17 17 16 17 17 16 16 15 14 13 14 14 14 14 15 15 14 13 13 14 15 16 16 17 18 18 18 18 17 16 15 16 15 14 13 13 13 13
13 12 11 11 10 10 11 12 13 14 13 13 14 15 17 18 16 14 13 11 10 11 13 14 14 14 15 16 16 15 14 13 13 14 14 15 16 15 15 16 16 16 16 16 16 16 16 16 16 17 17 17 17 17 17 16 15 14 13 13 14 14 14 12 11 12 13 15 16 16 18 18 16 17 18 16 15 15 15 13 13 13 12 11 10
12 10 11 11 10 9 10 11 13 14 13 13 14 14 15 18 16 13 12 11 9 10 12 12 12 13 14 14 14 14 14 14 14 15 15 15 15 15 15 15 16 16 16 15 15 15 16 16 17 17 17 17 18 18 18 18 16 15 13 14 15 15 14 11 10 12 14 15 16 16 15 15 14 16 15 13 13 13 12 12 11 11 10 9 8
11 8 11 11 10 9 9 11 13 14 13 12 14 14 16 18 16 13 12 10 9 9 10 10 10 12 13 13 13 14 14 14 15 16 16 15 15 16 16 16 16 16 16 16 16 15 15 16 17 17 17 18 18 18 19 18 17 15 14 14 15 15 13 10 9 12 14 14 14 13 12 12 12 14 13 11 11 10 10 10 9 9 10 10 9
12 8 10 11 10 9 9 11 12 13 13 12 14 14 16 17 16 14 12 9 7 8 8 9 10 10 10 11 13 14 15 14 13 15 14 13 15 16 16 16 16 16 16 15 15 15 15 16 17 17 18 18 18 19 19 18 16 14 13 13 13 13 11 8 8 10 12 12 12 12 12 11 13 14 12 11 10 10 10 10 9 9 10 11 10
12 8 10 11 10 8 9 12 12 13 12 12 14 15 16 16 16 14 12 10 6 6 7 8 9 9 9 10 13 14 15 13 12 13 13 13 15 16 16 16 15 14 14 14 14 14 15 16 17 17 17 18 18 18 18 17 15 13 11 11 10 10 10 8 9 11 11 11 11 13 13 12 13 13 12 11 11 11 11 10 9 10 11 10 9
12 8 10 11 10 8 9 12 11 12 12 13 14 15 15 14 14 13 12 9 6 6 8 8 9 10 10 11 13 14 14 13 11 12 13 13 14 15 16 16 16 16 16 16 15 15 15 15 16 17 17 17 17 17 17 16 14 13 11 10 12 12 11 11 11 12 13 13 13 13 12 11 12 12 10 11 12 12 11 8 7 8 10 9 8
12 9 10 11 10 8 9 11 11 12 12 13 13 14 14 13 12 12 11 8 7 9 9 10 10 10 11 11 13 13 13 12 12 12 13 13 14 15 17 18 18 18 17 16 15 14 14 15 15 16 16 16 16 16 16 15 14 13 12 12 14 13 12 11 12 12 13 13 12 11 10 10 11 11 11 12 12 12 10 7 7 7 7 8 9
12 9 10 11 10 9 9 11 11 11 11 12 13 13 13 13 13 12 12 10 11 11 11 12 12 11 11 11 12 12 12 12 13 13 13 13 14 16 18 18 18 18 17 17 17 16 16 15 15 15 15 15 15 15 15 14 13 13 12 12 12 12 11 11 11 11 11 10 10 9 8 10 12 13 13 12 12 12 12 9 8 8 7 8 9
11 9 10 11 11 9 9 10 10 10 10 11 12 12 13 13 12 13 13 13 13 13 13 12 12 12 11 12 12 12 12 12 12 12 12 13 15 17 17 17 17 17 17 18 18 18 18 16 15 14 14 14 15 15 14 13 12 12 12 11 11 10 9 8 8 8 7 7 7 6 7 10 12 12 13 13 13 13 13 12 10 9 9 9 9
11 10 10 12 11 9 9 10 9 9 9 10 11 11 12 12 12 12 13 13 13 13 13 12 12 12 11 12 13 13 13 13 13 12 13 14 14 15 16 16 16 16 17 17 18 19 19 18 16 15 14 13 13 13 13 12 11 11 11 10 10 9 7 6 6 5 4 3 4 5 7 10 10 10 12 13 14 14 13 12 11 10 9 10 10
13 11 10 11 11 10 9 9 9 9 8 9 10 10 11 11 12 12 12 12 12 13 13 13 12 12 12 13 13 13 13 13 13 13 12 13 13 14 14 14 14 15 15 16 17 18 18 18 17 16 14 13 13 13 12 11 10 9 9 9 9 8 7 6 4 3 2 1 2 4 6 8 9 9 11 13 13 13 12 12 11 10 9 8 9
14 13 11 11 11 11 9 9 9 8 8 8 8 9 9 10 11 11 12 11 11 12 12 12 12 11 12 12 12 12 13 13 13 12 12 12 12 12 12 12 12 12 13 14 15 16 16 16 17 16 15 13 13 12 11 10 9 8 8 8 8 8 8 6 4 3 1 2 2 3 5 6 8 8 10 12 12 12 11 12 11 10 9 8 9
16 15 12 12 11 11 9 9 8 7 7 7 7 7 8 8 9 10 11 11 11 11 11 11 11 11 12 12 12 12 12 12 12 12 12 12 11 11 11 10 10 10 10 11 12 13 14 15 15 15 14 14 13 11 10 9 8 7 7 7 6 7 7 4 5 5 3 3 2 2 4 5 7 7 9 12 11 10 10 11 11 10 10 10 9
16 16 13 13 11 11 10 8 8 7 7 6 6 6 6 7 7 8 9 10 10 10 10 10 11 11 11 11 12 12 12 11 11 11 11 11 10 10 9 10 9 9 9 9 10 10 11 12 12 13 13 12 12 11 10 9 8 7 6 5 5 7 6 4 5 5 4 4 3 3 4 4 7 7 7 10 10 9 10 10 10 10 10 11 10
16 17 15 14 12 11 10 9 8 8 8 7 6 6 6 6 6 7 7 9 9 10 10 9 10 10 10 10 10 11 10 10 10 9 9 10 9 8 8 8 8 8 7 7 8 8 9 9 9 10 10 11 11 10 9 8 7 6 5 5 6 6 4 3 5 3 4 6 5 4 4 4 8 7 6 10 10 7 9 10 10 10 9 8 7
18 18 17 17 14 12 12 11 10 9 8 7 7 6 6 6 6 6 6 7 7 9 9 9 8 8 8 8 9 9 9 9 8 8 7 7 7 7 7 6 7 6 6 6 6 6 7 7 7 7 8 9 9 9 8 7 6 5 5 6 6 5 3 3 4 2 3 4 3 4 3 6 7 5 7 10 9 6 7 10 9 9 9 6 4
18 19 18 18 17 15 14 12 11 11 10 9 8 7 7 7 6 6 6 6 6 7 8 8 8 7 7 6 7 7 7 7 7 6 5 5 5 5 5 5 5 4 4 3 4 4 5 5 5 5 5 6 6 7 7 6 5 5 4 5 5 3 2 2 4 3 3 3 2 3 3 5 5 6 10 9 8 8 9 10 7 6 6 5 6
17 18 17 17 18 18 16 14 13 13 13 11 10 9 8 8 8 8 8 7 7 6 7 7 7 7 6 5 6 4 4 5 5 5 4 4 4 3 3 3 3 2 2 1 1 2 2 3 3 4 4 4 4 5 5 4 4 4 3 5 3 0 1 1 3 4 4 4 2 2 2 4 5 8 8 7 8 9 9 8 4 3 3 4 7
15 15 16 17 18 18 18 17 15 15 15 13 12 11 10 10 10 10 10 9 8 7 7 7 7 7 6 5 5 4 3 3 3 3 3 4 3 3 2 2 2 2 2 1 1 1 1 1 2 3 3 4 5 5 5 4 4 5 4 3 1 0 1 1 3 4 5 5 4 2 2 4 5 4 2 6 8 6 8 7 3 2 2 4 5
15 14 16 16 17 18 18 19 19 18 17 15 14 13 12 10 10 11 11 10 10 9 7 7 7 7 6 5 5 5 4 3 3 3 4 4 4 4 4 3 3 2 3 3 3 3 2 3 3 3 3 3 3 3 4 5 5 5 5 4 3 1 1 2 2 4 6 5 4 4 4 5 3 1 1 6 6 2 5 5 3 2 3 5 4
17 16 15 15 16 18 18 19 20 20 20 18 16 15 14 12 11 11 11 10 11 10 9 8 8 7 7 6 6 6 5 5 4 4 5 4 5 5 5 5 4 4 5 5 5 5 5 5 5 5 5 4 3 3 3 4 5 5 6 6 4 3 3 3 2 5 7 6 7 7 7 6 2 2 4 6 6 1 2 2 2 2 2 3 4
18 18 16 15 17 18 18 18 19 20 21 21 19 17 16 15 14 13 13 12 11 11 10 9 9 9 9 8 7 8 7 6 6 6 6 5 5 6 6 7 6 6 7 7 7 7 7 7 7 7 6 6 6 6 5 5 6 6 8 9 7 5 4 5 5 6 8 8 9 10 9 6 2 2 4 5 4 1 2 2 1 2 1 1 2
18 19 19 17 18 19 19 19 18 19 19 21 22 20 18 17 17 16 15 15 14 12 11 10 11 10 10 10 9 9 9 9 8 8 8 7 7 7 7 8 8 8 8 9 8 8 9 9 9 8 8 8 8 8 8 7 7 8 9 10 9 8 6 7 8 8 9 10 10 11 12 11 6 3 4 3 2 4 3 2 2 3 3 1 3
18 20 21 20 19 20 21 21 20 19 19 19 21 21 19 18 18 17 17 17 16 14 13 12 13 13 11 11 11 11 11 11 11 10 10 10 9 9 9 9 9 9 9 10 10 10 10 11 10 10 10 10 10 10 9 9 8 9 10 11 10 10 9 8 9 10 11 13 12 12 12 13 12 8 7 4 2 5 4 3 4 5 5 3 4
19 20 21 20 19 19 19 21 21 19 20 19 19 20 19 18 17 17 17 17 17 16 16 15 15 15 13 13 13 13 13 13 13 13 13 13 13 12 11 12 11 11 10 11 11 11 11 12 11 11 11 11 12 11 11 10 9 10 12 13 13 12 11 10 10 11 11 13 15 14 12 13 14 13 12 8 4 4 6 7 8 7 6 5 7
23 22 21 21 21 20 17 19 21 21 21 20 19 19 19 19 18 17 18 17 16 17 17 17 17 16 16 16 15 14 14 15 15 15 16 16 15 14 13 14 13 13 12 12 12 12 12 13 12 12 12 12 13 13 12 12 11 13 13 13 13 13 13 12 11 12 12 12 14 16 15 14 15 15 15 14 10 6 6 9 9 9 9 7 9
24 23 22 22 22 21 19 18 20 22 21 21 20 20 19 19 19 19 18 17 17 17 17 18 19 18 17 18 17 15 15 16 16 17 18 18 17 16 15 15 15 15 14 14 14 13 13 13 13 13 13 13 14 14 14 14 14 15 15 14 13 14 14 14 14 14 14 13 14 16 17 17 16 17 16 16 14 11 10 10 10 12 13 9 8
23 23 23 23 22 21 20 19 18 20 20 20 21 21 20 20 20 19 19 19 18 17 17 18 19 20 19 20 19 18 16 17 17 19 20 21 20 19 18 17 17 17 16 16 15 14 14 15 14 14 15 15 15 16 17 17 17 16 17 17 15 15 15 16 15 15 16 16 16 16 17 19 18 18 18 18 17 15 14 13 13 14 14 12 11
22 23 23 22 21 21 21 19 18 18 18 19 20 20 20 21 21 20 20 20 20 19 18 18 19 20 21 21 21 20 19 19 19 20 22 23 22 22 20 20 19 18 18 17 16 15 16 17 17 16 16 18 17 18 18 18 18 18 19 19 17 16 17 18 18 18 18 18 18 18 18 19 20 20 21 21 20 19 18 17 17 16 16 15 15
21 21 21 21 20 20 19 19 18 17 17 16 17 19 19 20 20 21 21 21 20 20 19 19 19 19 21 22 22 22 21 20 21 21 23 24 25 24 22 21 21 20 19 18 17 17 18 19 19 18 19 20 19 19 19 18 18 19 21 20 18 18 18 20 20 21 21 21 21 21 20 21 22 22 22 22 22 21 21 21 20 20 19 17 17
20 20 20 20 19 19 18 17 17 17 17 16 16 17 18 18 18 19 19 20 21 20 20 20 20 20 21 22 23 23 23 22 23 23 25 26 27 26 24 22 23 23 21 19 19 19 20 20 19 20 21 22 21 20 20 20 19 20 21 21 20 20 20 22 23 24 24 24 24 24 23 23 23 23 23 23 24 23 23 24 24 23 23 22 21
19 20 20 19 18 18 17 17 16 16 17 17 16 16 16 17 18 18 18 19 20 20 20 21 21 21 22 22 23 23 24 24 25 25 26 27 28 28 26 24 25 25 24 22 21 20 21 21 20 21 21 22 22 21 20 20 21 21 22 23 23 23 24 25 26 26 27 27 27 27 27 26 25 25 25 25 26 26 25 25 26 26 26 26 25
20 20 20 19 18 18 18 18 18 17 17 17 17 16 16 17 18 18 19 19 19 19 20 21 22 22 22 22 23 23 23 23 24 25 26 27 28 28 27 25 25 26 26 25 23 22 22 22 21 21 22 22 22 22 23 22 22 23 23 24 25 26 27 28 29 29 29 29 29 29 29 29 29 28 27 27 27 27 28 27 28 29 30 30 28
21 21 21 21 20 20 20 20 19 19 18 18 19 19 18 18 19 19 20 20 20 19 19 20 21 21 22 22 22 23 22 22 22 22 23 24 25 26 25 23 22 25 26 24 22 20 21 22 22 22 23 23 23 24 25 24 25 26 25 25 25 26 27 29 30 32 32 31 31 30 30 30 31 31 31 30 29 29 29 29 30 31 32 32 32
22 23 23 23 22 21 22 21 20 20 21 21 21 21 21 20 20 20 20 20 20 20 20 20 20 20 21 22 22 22 22 22 21 21 21 21 20 20 20 20 20 24 25 22 20 21 22 23 23 23 24 25 25 25 26 27 28 29 28 27 26 27 29 30 31 32 33 34 33 30 28 28 29 31 32 32 31 31 30 31 32 33 34 36 36
24 24 25 24 23 22 22 22 21 22 22 22 22 22 22 22 21 20 19 19 19 19 19 19 19 19 20 21 22 22 22 22 21 21 22 21 20 18 18 20 22 25 25 21 19 22 24 25 25 26 27 26 26 26 27 28 31 32 31 30 29 29 30 30 30 29 29 30 30 27 26 26 26 27 29 32 33 32 32 33 33 33 35 37 39
25 25 25 24 24 23 23 23 23 23 23 23 23 23 23 23 22 21 20 20 19 19 19 19 19 18 19 20 21 22 22 22 21 22 23 22 21 19 19 21 23 26 27 23 21 22 24 25 25 26 27 28 29 28 28 29 31 33 32 30 29 29 31 31 28 26 27 27 28 28 27 26 24 24 26 29 31 32 32 33 34 34 34 36 40
27 26 26 26 26 25 24 24 25 24 23 23 23 23 23 23 22 22 21 21 20 21 21 21 21 20 19 19 20 20 20 20 21 21 22 21 20 21 22 24 26 28 29 25 24 23 23 24 25 25 26 29 31 29 28 28 29 31 30 27 24 25 28 30 29 30 30 29 30 30 29 27 25 25 26 27 28 29 30 31 32 32 32 34 38
28 28 28 28 27 27 26 25 25 24 24 23 23 24 24 24 24 23 23 23 23 23 23 23 23 23 21 20 20 19 19 20 19 19 20 20 21 24 26 28 29 30 30 28 27 25 26 29 29 29 29 31 32 31 29 28 28 29 29 29 25 21 25 28 31 33 31 30 32 32 32 31 31 29 28 28 28 28 30 31 31 31 31 32 34
27 27 27 28 28 27 26 25 24 24 24 24 24 25 26 26 26 26 25 25 24 23 23 23 23 23 22 21 20 19 20 21 19 19 20 20 22 26 28 30 29 29 30 30 29 28 29 30 30 29 30 31 32 31 30 29 29 29 29 31 31 29 30 31 31 32 32 33 33 33 34 35 34 33 33 33 32 31 32 33 33 33 33 33 33
24 25 26 26 27 26 26 25 24 25 25 25 26 26 27 27 27 27 26 25 24 23 23 22 22 21 20 20 19 19 20 21 20 20 21 22 25 28 29 27 25 25 28 29 31 30 29 28 28 29 31 30 29 29 29 29 31 30 28 28 31 34 34 32 31 32 33 35 35 35 36 36 36 37 38 37 34 34 33 33 34 35 34 34 34
24 25 25 25 26 26 25 24 24 25 26 27 28 28 28 28 27 26 25 24 24 24 23 23 21 19 18 17 18 19 20 21 21 21 22 23 26 26 24 22 23 24 27 29 31 32 31 32 31 32 32 30 29 29 30 30 31 30 29 28 29 32 34 33 33 33 34 38 41 40 38 38 37 37 37 37 35 34 33 31 32 33 33 33 33
26 26 26 26 27 27 26 26 27 27 28 29 29 29 29 29 26 24 23 23 23 23 22 21 20 18 17 18 19 19 20 21 20 20 20 22 23 22 21 21 24 26 27 29 31 33 34 34 32 32 32 30 30 31 32 33 33 31 30 30 31 32 34 34 35 35 36 39 43 42 40 39 39 37 36 36 35 34 34 33 32 32 32 32 32
27 27 27 28 29 29 29 28 28 29 29 29 29 29 28 26 23 21 21 20 20 19 18 18 18 18 18 17 17 17 18 18 18 18 18 20 21 22 22 23 25 27 28 29 31 32 32 30 28 29 29 28 29 31 32 32 31 31 31 33 35 36 36 36 36 36 37 38 40 42 43 42 42 40 36 35 35 34 35 36 35 34 33 33 32
25 26 26 27 28 28 27 27 28 29 29 28 27 26 23 20 18 17 17 16 16 15 15 15 16 16 15 13 13 13 14 15 16 16 16 17 19 21 22 24 26 28 29 28 29 29 29 28 27 28 28 28 29 31 32 32 31 33 34 34 35 37 37 37 37 37 37 38 38 42 45 43 42 43 40 38 38 36 35 35 36 35 35 34 32
Wind_Direction
141 136 121 114 98 80 67 58 50 47 49 53 64 77 84 87 85 81 77 70 56 40 47 69 75 74 75 77 79 77 78 76 75 78 76 77 78 77 79 77 77 76 77 79 80 82 83 86 88 84 79 82 90 95 92 88 84 79 76 74 77 83 84 81 78 77 75 73 71 70 69 68 64 61 64 68 71 74 75 77 77 78 78 75 74
142 135 124 116 96 80 69 61 54 51 52 58 74 89 92 90 87 84 80 74 58 42 56 75 74 77 78 77 77 76 76 74 77 79 76 77 79 78 77 77 76 77 77 79 79 80 82 84 88 88 87 90 92 92 88 83 79 76 75 76 81 85 84 81 77 73 70 69 70 71 71 69 67 67 70 72 74 75 76 78 79 79 79 77 76
141 133 124 113 94 83 73 66 58 54 56 64 86 98 96 91 88 86 82 76 59 49 64 81 79 80 81 79 79 79 75 74 78 76 73 75 78 76 76 78 78 78 79 79 80 80 82 83 86 88 90 92 93 91 88 85 81 78 76 79 83 84 80 75 73 72 73 74 76 78 79 77 74 76 78 76 74 74 76 77 77 78 78 78 77
141 132 125 113 98 87 76 69 62 58 60 69 89 103 100 93 89 86 83 76 60 55 65 80 85 86 89 89 86 82 75 74 80 76 71 72 74 75 76 78 79 80 80 80 80 80 81 81 83 85 87 89 91 93 93 91 86 83 81 82 82 80 74 70 66 69 76 78 80 82 82 82 81 81 79 75 71 73 78 79 76 75 77 75 75
138 132 127 116 105 90 80 72 65 60 62 72 88 106 105 97 95 92 85 76 63 61 66 76 83 84 87 91 91 84 76 76 82 81 78 77 76 78 77 78 79 81 81 80 81 82 83 83 84 84 85 86 88 91 92 92 89 89 88 86 85 82 79 78 73 70 74 78 80 81 81 83 85 82 76 70 68 73 78 76 72 71 75 76 76
136 136 131 122 112 94 83 75 69 63 65 72 88 106 107 103 104 97 85 75 69 69 71 80 86 85 85 89 92 87 78 77 84 88 89 85 80 79 78 79 81 83 83 82 82 82 83 84 83 83 83 84 85 88 90 91 92 93 93 91 87 85 86 86 78 74 77 80 81 82 83 84 83 79 70 63 64 73 74 67 66 67 70 75 77
142 141 134 124 113 98 86 80 74 66 67 73 88 106 110 104 99 92 86 78 73 72 72 81 85 81 88 94 93 91 88 83 86 93 92 87 81 80 81 80 82 84 83 83 83 82 83 83 83 82 81 83 84 87 87 88 90 92 95 94 90 86 84 80 74 77 83 85 85 85 84 80 75 74 67 61 65 72 69 62 63 64 65 67 65
141 139 133 125 115 102 91 85 78 70 69 76 85 100 109 102 97 95 95 88 77 73 69 76 75 71 87 95 93 97 98 89 86 90 87 85 82 81 79 77 78 79 79 78 78 79 79 79 79 79 80 82 83 85 85 84 86 90 93 95 93 87 80 77 79 84 87 89 88 88 83 73 68 68 64 62 65 63 59 59 61 59 54 47 39
131 140 133 127 122 107 97 90 82 74 70 79 84 92 105 103 102 103 98 90 79 77 67 66 67 73 89 95 96 96 91 84 84 86 82 82 82 80 78 75 75 72 72 72 71 71 73 74 74 76 78 80 82 82 82 83 85 88 93 95 93 89 84 82 88 89 87 88 86 83 75 67 67 68 63 62 58 48 46 44 45 46 37 23 17
135 152 134 133 130 112 103 93 86 79 72 80 85 93 108 106 106 107 99 93 84 78 65 57 64 77 91 96 99 93 87 83 84 87 85 85 86 86 84 80 78 75 74 75 74 72 71 74 76 77 79 80 81 81 81 83 85 88 92 94 95 95 93 89 94 93 89 88 85 77 71 70 72 70 62 54 44 36 29 22 19 21 20 14 23
148 160 137 143 135 119 107 96 90 84 76 84 89 98 111 109 106 108 104 103 94 74 63 61 66 77 89 96 99 98 97 96 92 95 95 93 91 89 87 84 82 80 77 77 77 75 74 76 80 82 83 82 82 82 82 84 87 88 89 91 92 94 93 88 89 89 86 86 87 82 79 77 70 64 54 42 26 17 13 14 15 10 14 20 42
165 160 144 149 140 127 110 100 96 90 83 87 93 100 109 110 106 110 112 109 97 77 76 75 74 80 89 98 103 101 100 103 101 100 97 94 91 88 85 83 80 76 72 70 71 73 75 78 82 85 85 84 84 84 84 85 86 82 80 87 89 90 91 88 85 85 87 89 91 88 84 77 62 50 35 20 7 4 5 11 9 5 17 18 26
178 159 148 152 147 134 117 106 101 96 89 87 92 97 102 104 102 108 112 106 93 89 87 82 78 84 90 96 104 102 98 100 102 100 98 95 91 88 85 83 79 75 71 69 71 74 78 81 85 88 88 87 86 86 86 85 81 74 74 88 92 88 87 87 87 89 92 92 91 86 79 63 42 28 15 6 2 7 15 15 4 360 12 9 12
180 159 155 156 155 140 125 113 105 100 93 89 90 94 97 98 98 99 102 98 94 93 88 83 83 87 90 94 99 100 98 99 101 100 97 95 92 91 90 87 83 80 77 75 76 78 81 84 88 90 91 90 88 88 86 83 77 71 70 80 86 82 79 82 88 92 92 90 84 76 64 42 25 22 20 19 18 20 24 22 15 7 8 7 14
179 161 160 160 160 149 134 122 114 106 98 94 91 94 97 98 99 97 96 95 92 90 86 85 85 88 92 93 94 92 91 94 97 95 92 93 94 97 97 94 89 85 82 79 78 78 80 82 86 89 92 92 90 89 85 80 74 70 67 65 69 74 76 78 83 86 86 85 79 68 47 30 23 27 31 34 33 29 25 23 22 21 27 31 38
182 161 158 164 165 160 143 131 125 115 107 101 98 96 97 98 99 96 94 92 91 89 87 87 86 88 91 91 93 92 89 89 89 88 89 94 99 104 105 98 90 86 83 80 79 78 78 80 82 85 89 91 91 90 86 81 74 71 68 60 57 61 65 69 70 68 75 83 78 60 36 25 27 34 38 40 39 34 31 33 35 38 45 51 56
182 163 158 165 168 170 154 142 137 127 120 109 106 101 99 98 98 98 95 94 92 92 91 89 89 90 92 93 96 97 97 95 93 92 93 99 106 111 110 101 92 87 84 80 78 77 78 79 80 82 84 89 91 91 89 85 79 72 68 59 51 48 52 55 56 63 67 59 63 42 29 31 38 42 41 40 38 35 36 41 44 43 43 48 54
179 167 164 164 168 176 164 153 149 141 135 120 116 109 106 104 101 103 101 101 98 97 97 96 96 95 97 101 104 106 106 105 104 104 103 104 109 113 112 105 96 89 84 81 79 77 77 78 78 80 81 83 86 89 91 89 85 77 68 59 47 42 47 48 46 55 20 342 19 28 36 49 46 42 41 36 33 35 41 43 42 44 47 50 55
176 170 169 167 169 175 172 164 161 156 152 139 132 125 120 116 111 111 108 109 106 105 105 103 103 102 103 107 112 114 114 114 113 112 109 108 109 113 111 106 99 91 86 82 79 77 76 77 78 79 79 79 81 83 87 90 90 85 75 63 51 51 51 43 36 36 17 360 34 68 71 65 42 31 33 30 31 37 40 38 33 39 45 47 57
179 175 173 171 172 178 178 174 175 169 167 162 155 150 139 132 124 120 117 116 115 114 113 112 110 108 108 109 115 119 120 120 118 117 114 112 112 111 108 104 100 92 87 82 79 77 75 75 77 78 78 77 77 78 81 86 89 89 84 67 55 57 52 39 41 31 28 58 88 83 81 64 20 6 16 28 38 37 27 28 30 36 41 52 70
183 181 177 173 175 183 184 182 186 181 180 178 172 176 164 154 143 134 130 126 123 122 120 118 115 112 111 111 115 117 121 123 121 121 118 117 116 111 109 104 101 94 86 81 79 75 73 72 72 76 77 75 72 71 73 76 81 84 80 67 61 62 50 21 35 33 50 72 77 66 67 21 1 2 13 19 31 33 20 22 24 38 57 68 73
186 184 180 178 180 185 187 189 190 189 192 191 186 190 189 181 170 160 151 144 136 131 128 123 121 118 115 117 119 118 120 123 122 122 121 121 121 118 114 108 103 96 85 80 79 74 71 67 66 71 74 75 72 66 64 62 66 71 70 71 71 64 44 357 1 20 67 62 38 50 51 10 14 23 5 2 12 14 13 12 10 40 72 80 56
189 187 183 182 184 187 188 190 194 194 197 201 200 200 204 202 196 190 176 170 160 146 139 131 131 126 125 135 127 119 121 123 122 123 131 132 130 131 127 121 117 109 98 86 81 75 69 63 57 56 61 74 79 72 65 54 51 55 67 69 64 45 32 2 334 337 27 35 20 40 23 15 25 350 340 354 4 351 357 4 13 52 68 79 74
192 191 190 188 188 193 190 189 197 197 199 206 208 209 215 215 212 210 200 192 183 172 160 146 145 139 142 153 134 124 128 127 132 137 149 151 148 152 149 144 143 144 142 116 79 65 56 54 46 34 33 41 51 56 53 49 43 37 58 62 55 68 47 10 313 314 339 1 11 21 354 356 349 330 335 3 1 341 345 353 14 45 26 83 94
195 194 194 196 195 198 196 193 198 200 201 206 212 215 221 225 222 218 212 205 200 196 186 174 165 153 160 162 145 159 163 149 161 171 177 179 185 185 188 194 183 204 231 251 274 341 357 358 10 11 3 11 24 22 12 11 14 11 23 30 359 111 68 318 309 305 319 345 346 313 295 317 329 336 1 0 351 337 344 354 14 19 24 95 103
196 199 196 202 201 202 203 202 202 203 204 205 214 218 220 227 228 225 219 213 209 208 205 200 192 176 182 175 158 177 190 185 194 209 211 209 213 213 225 231 213 229 251 257 270 281 289 303 315 322 328 353 14 359 350 347 349 354 346 330 322 333 295 287 309 297 301 323 319 300 290 294 314 320 283 337 345 331 339 6 55 50 68 95 109
195 203 204 206 204 203 206 208 206 206 207 207 212 217 220 222 226 231 230 226 217 216 219 215 214 204 201 198 182 192 207 206 209 226 236 234 233 233 241 246 238 242 254 259 268 278 283 288 294 301 309 318 316 314 322 323 326 326 314 310 310 303 297 304 297 284 294 306 302 300 294 277 253 268 294 333 346 324 303 346 84 115 63 86 137
197 202 208 208 207 207 207 211 210 209 210 209 211 215 221 221 222 228 231 234 228 221 225 226 229 222 213 215 208 208 220 223 223 233 247 252 254 257 258 261 259 256 263 268 271 276 280 283 287 291 294 297 295 295 296 298 307 308 306 309 308 302 294 294 290 285 290 297 297 301 308 296 259 268 302 335 335 292 254 266 131 162 296 49 169
203 202 207 210 213 213 211 213 212 214 214 212 212 216 222 224 224 226 229 237 238 231 228 228 236 236 224 223 225 223 227 233 235 236 245 252 255 261 266 267 267 264 267 271 273 276 278 281 283 285 286 288 289 291 292 294 298 301 305 311 313 309 296 282 286 288 288 291 292 297 311 315 314 315 310 321 281 269 271 254 202 216 265 243 225
207 206 211 213 219 221 217 216 216 218 221 217 214 217 222 225 227 228 230 237 242 240 236 231 236 243 238 233 234 233 235 239 243 243 244 248 250 253 259 264 266 267 268 270 273 274 276 280 281 284 284 284 286 287 292 295 299 305 310 314 315 311 304 289 283 288 290 292 292 291 300 307 311 319 317 322 279 268 272 272 251 242 283 267 229
204 208 214 215 222 229 223 218 218 220 225 224 220 220 223 225 230 233 234 239 241 241 241 239 240 245 246 242 238 237 241 243 246 250 249 250 251 251 255 260 265 267 269 271 274 276 276 278 280 282 284 284 286 285 288 290 297 309 312 312 311 307 303 296 285 287 290 290 292 293 294 293 298 307 311 318 313 262 242 257 258 243 274 264 235
202 206 214 218 222 231 230 221 219 222 226 227 226 226 225 226 231 235 240 243 243 244 243 243 246 247 248 248 245 240 242 245 249 254 256 256 254 253 254 258 264 267 269 270 272 275 276 278 280 282 283 284 286 287 287 285 293 304 306 306 306 305 302 296 291 289 291 285 284 290 293 288 289 298 304 310 314 299 262 257 256 257 279 261 231
209 209 216 221 224 232 236 228 221 225 229 229 231 232 231 232 233 236 242 244 245 248 246 246 249 251 251 252 252 247 244 246 248 252 258 261 260 258 255 257 262 264 266 268 270 273 275 279 282 283 284 284 287 288 285 283 289 295 295 296 297 301 299 293 292 291 289 283 278 285 291 291 291 293 296 301 304 300 285 270 255 259 278 274 242
216 213 218 223 227 231 235 234 227 229 233 232 233 235 235 236 238 238 240 245 248 249 250 249 249 252 254 254 257 254 249 248 248 250 256 261 263 262 258 256 258 262 264 264 267 271 273 277 282 284 285 284 285 285 282 281 283 285 288 289 287 290 292 290 290 288 283 281 281 281 284 288 289 289 289 290 292 291 285 278 265 260 264 258 247
219 217 223 227 230 231 233 236 232 235 239 236 236 238 237 236 240 240 238 244 249 250 251 252 250 253 255 256 258 257 253 250 250 251 255 260 262 263 262 258 257 259 260 261 263 267 270 274 278 281 283 283 283 281 281 281 280 279 280 282 282 284 287 290 293 292 288 284 283 279 276 280 283 284 284 284 285 285 283 279 273 270 267 251 242
221 222 227 229 231 232 234 236 234 236 242 243 243 241 239 238 239 241 240 241 245 249 252 254 254 254 256 258 258 259 256 252 251 252 256 261 263 264 264 263 263 260 258 258 260 265 269 271 273 276 278 280 280 277 276 278 278 277 275 276 282 287 287 289 291 292 292 288 286 282 278 276 277 278 280 280 281 281 281 279 273 269 269 258 248
224 225 227 228 230 232 234 237 237 237 241 246 246 244 244 244 244 244 243 241 244 249 252 255 257 256 257 259 259 260 259 256 253 251 253 259 263 266 265 265 266 264 261 259 260 262 266 269 270 273 275 277 278 277 275 276 278 277 275 275 281 285 286 287 288 289 289 288 287 285 282 279 275 276 277 277 277 277 278 277 274 269 266 264 261
226 226 226 227 228 231 234 236 238 237 239 244 247 248 245 245 250 251 249 247 247 249 251 253 257 258 259 260 261 261 260 259 257 254 253 255 259 263 265 264 266 268 266 261 261 261 260 265 268 270 272 273 276 278 276 276 276 276 276 277 279 281 283 284 285 286 285 285 285 284 282 280 275 275 276 276 274 274 276 276 275 270 267 267 266
225 226 227 228 227 230 234 236 239 239 240 243 246 248 244 241 246 250 251 250 249 250 251 252 256 260 262 263 265 266 265 263 261 260 257 254 255 259 263 266 267 268 266 262 263 262 258 261 266 268 270 271 272 274 276 277 278 279 280 281 280 279 279 281 281 282 282 283 284 284 281 277 274 273 274 275 273 271 274 276 276 272 270 270 268
226 228 228 229 228 229 233 235 239 243 244 244 244 244 244 242 243 247 252 255 256 256 256 256 256 259 262 264 266 268 270 268 267 267 263 260 258 259 263 265 265 265 265 265 267 266 261 262 266 270 271 270 269 270 275 279 281 282 283 283 282 281 280 279 278 278 279 281 283 286 284 279 275 272 272 273 274 273 274 277 277 275 272 270 269
227 228 230 231 230 230 235 237 238 242 245 244 245 245 247 247 247 251 255 258 260 261 261 261 259 259 261 264 264 266 267 266 268 268 267 265 260 260 261 260 261 264 268 272 273 268 263 262 266 269 270 271 271 273 276 279 280 279 279 280 281 284 282 279 278 277 277 279 283 287 288 285 281 275 272 271 272 274 276 278 278 276 273 271 269
227 228 230 232 232 233 236 239 240 241 244 246 248 249 251 253 254 257 260 259 260 262 265 265 264 262 261 264 267 268 266 264 265 266 267 264 256 256 259 260 262 265 270 276 274 267 262 262 264 265 267 272 276 279 279 278 278 279 277 276 280 285 287 284 282 282 283 284 285 287 290 292 291 284 275 271 271 273 277 280 279 276 272 271 269
229 229 231 232 232 233 235 239 241 241 243 247 250 252 254 257 258 259 259 258 259 263 266 266 266 263 260 264 269 270 267 264 261 263 267 265 260 262 265 265 265 265 269 275 275 270 267 267 267 267 267 271 276 278 278 277 278 280 277 274 279 288 293 293 291 290 291 291 288 287 290 293 295 292 281 273 271 272 277 281 281 278 273 270 269
231 230 230 231 233 236 238 239 242 244 244 246 249 252 253 254 254 254 252 252 254 259 264 267 266 264 262 263 266 269 271 269 267 267 270 269 270 273 270 268 267 264 264 268 271 271 270 271 271 273 273 273 275 276 278 279 278 279 275 271 278 287 291 297 299 297 296 295 294 292 290 290 294 294 286 280 277 275 278 282 282 280 276 272 269
233 233 233 235 238 241 242 242 243 245 246 246 247 249 248 248 248 246 244 245 249 254 261 266 268 269 268 265 265 269 274 277 276 274 274 271 269 268 264 265 269 264 261 263 266 268 271 273 273 273 275 278 282 280 278 280 281 280 276 270 272 278 285 294 300 299 298 297 297 296 293 291 294 296 292 289 287 283 283 284 283 282 281 278 274
233 235 237 238 241 243 243 242 242 243 245 246 247 248 247 247 248 247 246 249 254 259 262 265 268 269 269 268 270 273 275 277 274 268 269 267 263 259 258 263 267 262 260 262 265 268 271 274 277 275 273 278 285 280 274 280 284 281 277 272 269 271 281 290 292 292 296 297 295 295 295 293 293 294 293 292 291 289 287 285 283 282 282 282 280
233 234 235 237 239 240 241 241 241 242 243 245 247 247 247 248 249 250 252 256 262 266 267 267 266 264 263 265 269 271 272 273 269 262 261 260 260 261 264 266 266 261 262 265 268 271 271 271 274 273 271 276 280 277 274 279 283 280 278 276 274 274 277 282 286 287 290 292 293 294 294 292 291 292 292 292 292 291 290 287 283 283 282 281 279
234 234 235 236 237 238 239 239 240 241 243 244 246 247 248 249 249 250 254 260 265 267 266 266 266 265 263 263 263 264 266 269 269 265 263 262 264 269 273 272 269 267 267 269 270 270 270 269 267 267 269 273 274 275 276 277 279 282 283 282 284 283 278 277 284 287 282 283 288 292 292 291 290 291 292 292 292 292 293 289 285 284 282 279 277
239 237 237 237 238 238 239 239 240 242 244 245 246 247 247 248 249 252 256 260 262 263 264 265 267 267 264 261 260 261 265 270 273 273 271 269 269 271 271 267 266 266 265 267 267 265 268 270 269 267 269 270 270 274 278 279 279 282 286 286 287 288 284 280 282 284 282 280 283 289 293 292 290 291 292 293 294 295 294 291 288 286 281 278 277
240 239 238 237 237 237 238 239 241 243 245 244 244 245 246 248 250 252 255 257 259 261 262 262 260 259 260 262 266 270 273 277 280 279 277 275 275 272 269 267 268 270 271 270 270 270 271 270 268 267 267 266 268 273 281 285 284 285 287 285 283 281 282 281 281 283 285 282 282 287 292 291 289 292 295 295 296 296 295 294 292 289 285 282 279
237 236 236 236 235 236 237 240 242 244 244 242 242 243 245 248 249 249 251 253 254 254 253 253 254 259 270 279 284 286 286 288 290 289 285 282 279 277 276 274 273 276 277 276 276 277 277 275 272 269 267 268 271 273 277 279 280 286 286 281 280 281 280 281 284 285 286 285 285 288 291 290 288 291 295 296 296 295 294 294 293 292 292 290 286